Showing default

NIMBUS 4, 4362

Orbit data source: Space-Track

NIMBUS 4, 4362 is a payload satellite owned by GSFC (US) in SSO that was launched on Wed, 08 Apr 1970 UTC via a THORAD SLV-2G AGENA D launch vehicle from the Air Force Western Test Range (AFWTR). Payload-class satellites include a variety of spacecraft equipped with specific instruments for various scientific and technological missions. These include communications satellites like Starlink; space stations such as the ISS; scientific satellites like the Hubble; Earth observation satellites from companies like Planet Labs, Umbra, and HawkEye 360; GPS; miniature CubeSats for education and research; and military/defense satellites.

Loading next visibility...
Identifier
4362, 1970-025A
Orbit
SSO
Country
Flag of USUS
Related business
Manufacturer
GE/MSVD
Mission
Non-operational spacecraft
Bus & Motor
NIMBUS, Unknown motor
Mass
619 kg wet, 619 kg dry
Launch date (UTC)
1970-04-08 (56 years ago)
Launch vehicle
THORAD SLV-2G AGENA D
Launch site
Air Force Western Test Range (AFWTR)
Object type
Payload
Rocket body
Debris
Shape & HBR
Unknown
Radar Cross Section
Large (>1 m²)

Expand to show TLE details & history
Last TLE update: 2 days ago

TLE from 2 days ago
0 NIMBUS 4
1  4362U 70025A   26171.37082301 -.00000021  00000-0  41032-4 0  9998
2  4362  99.9611  92.4422 0007486 356.1428 111.2021 13.44755499757276
Epoch: 2026-06-20T08:53Z
TLE epoch observation values (Epoch: 2026-06-20T08:53:59.108Z)
Latitude
70.08186°
Longitude
-100.81107°
Altitude
1,105.672 km
Speed
7.305 km/s
True Right ascension
20h 05m 05s
True Declination
69° 58' 36"
Sunlit
Object was in daylight at epoch
Visualization orbit readout
Latitude
Unknown
Longitude
Unknown
Altitude
Unknown
Speed
Unknown
Apparent Right ascension
Unknown
Apparent Declination
Unknown
Sunlit
N/A
Visualization observer readout
Local Sidereal Time
02:14:49
Azimuth
Unknown
Elevation
Unknown
Doppler factor
Unknown
Orbital elements
Apogee altitude
1,094.529 km
Perigee altitude
1,083.349 km
Semi-major axis
7,467.076 km
Eccentricity
0.00075
Inclination
99.9611°
RAAN
92.4422°
Arg. of periapsis
356.1428°
True anomaly
111.28205°
Mean anomaly
111.2021°
Eccentric anomaly
111.24208°
Mean motion
3.3637 °/min
Orbital period
107.02 mins
BSTAR
0.000041032

Documentation

Showing up to 5 results
|